This is the latest recevied weather packets stored in our database for station/object HS0TK-1. If no packets are shown the sender has not sent any weather packets the latest 10 day(s).
| Time | Temp. | Humidity | Pressure | Rain* | Wind** | Luminosity | Snow |
|---|---|---|---|---|---|---|---|
| 1777695942 | 32.22° C | 40% | 1010 hPa | - | - | 0 W/m² | - |
| 1777695014 | 32.22° C | 43% | 1010 hPa | - | - | 0 W/m² | - |
| 1777694069 | 31.67° C | 48% | 1010 hPa | - | - | 0 W/m² | - |
| 1777693140 | 32.78° C | 55% | 1010 hPa | - | - | 0 W/m² | - |
| 1777692214 | 33.33° C | 61% | 1010 hPa | - | - | 0 W/m² | - |
| 1777692151 | 33.33° C | 61% | 1010 hPa | - | - | 0 W/m² | - |
| 1777691223 | 32.78° C | 61% | 1010 hPa | - | - | 0 W/m² | - |
| 1777690291 | 32.78° C | 62% | 1010 hPa | - | - | 0 W/m² | - |
| 1777689364 | 32.22° C | 64% | 1010 hPa | - | - | 0 W/m² | - |
| 1777688435 | 32.22° C | 64% | 1010 hPa | - | - | 0 W/m² | - |
| 1777687497 | 32.22° C | 62% | 1011 hPa | - | - | 0 W/m² | - |
| 1777686569 | 31.67° C | 63% | 1010 hPa | - | - | 0 W/m² | - |
| 1777685639 | 31.67° C | 63% | 1010 hPa | - | - | 0 W/m² | - |
| 1777684712 | 31.11° C | 63% | 1010 hPa | - | - | 0 W/m² | - |
| 1777683782 | 31.11° C | 63% | 1010 hPa | - | - | 0 W/m² | - |
| 1777682856 | 31.11° C | 62% | 1010 hPa | - | - | 0 W/m² | - |
| 1777681926 | 31.11° C | 61% | 1010 hPa | - | - | 0 W/m² | - |
| 1777680994 | 31.11° C | 59% | 1010 hPa | - | - | 0 W/m² | - |
| 1777680067 | 31.11° C | 57% | 1010 hPa | - | - | 0 W/m² | - |
| 1777679118 | 31.11° C | 58% | 1009 hPa | - | - | 0 W/m² | - |
| 1777678191 | 31.11° C | 58% | 1009 hPa | - | - | 0 W/m² | - |
| 1777677261 | 30.56° C | 59% | 1009 hPa | - | - | 0 W/m² | - |
| 1777643208 | 32.78° C | 45% | 1009 hPa | - | - | 0 W/m² | - |
| 1777642260 | 32.22° C | 44% | 1008 hPa | - | - | 0 W/m² | - |
| 1777641332 | 32.22° C | 41% | 1008 hPa | - | - | 0 W/m² | - |
* Rain since midnight (hover to see other rain measurements)
** Current wind speed in m/s (hover to see current wind gust speed)